Regional Weather Roundup
Issued by NWS

Home | Current Version | Previous Version | Graphics & Text | Print | Product List | Glossary On
Versions: 1 2 3 4 5 6 7 8 9 10 11 12 13 14 15 16 17 18 19 20 21 22 23 24 25 26 27 28 29 30 31 32 33 34 35 36 37 38 39 40 41 42 43 44 45 46 47 48 49 50
832
ASUS44 KMEG 192210
RWRTN
TENNESSEE HOURLY STATE WEATHER ROUNDUP
NATIONAL WEATHER SERVICE MEMPHIS TN
500 PM CDT TUE SEP 19 2017

TNZ002-004-019-021-049-052-054-088>092-192300-
WEST TENNESSEE

CITY           SKY/WX    TMP DP  RH WIND       PRES   REMARKS
MEMPHIS INTL   MOSUNNY   90  68  48 W8        29.89F HX  94
NWS MEMPHIS      N/A     90 N/A N/A MISG        N/A
JACKSON        MOSUNNY   90  69  50 W6        29.90S HX  94
DYERSBURG      SUNNY     89  72  56 SW6       29.89F HX  96
SOMERVILLE     MOSUNNY   90  68  48 W5        29.89S HX  93
COVINGTON      MOSUNNY   90  70  51 W7        29.89S HX  95
BOLIVAR        MOSUNNY   90  68  48 VRB5      29.89F HX  93
PARIS          MOSUNNY   88  70  55 W3        29.89R HX  92
HUNTINGDON     MOSUNNY   88  72  58 CALM      29.89R HX  94
LEXINGTON      SUNNY     88  70  55 CALM      29.90S HX  92
SELMER         MOSUNNY   88  70  55 VRB3      29.90S HX  92
SAVANNAH       SUNNY     88  68  51 CALM      29.89S HX  91
$$

TNZ008-025-027-028-033-062-065-066-192300-
NORTH MIDDLE TENNESSEE

CITY           SKY/WX    TMP DP  RH WIND       PRES   REMARKS
NASHVILLE      CLOUDY    73  67  81 E7        29.94F
PORTLAND       SUNNY     77  72  83 S7G13     29.94S
CLARKSVILLE    PTSUNNY   85  71  63 E7        29.91R HX  90
SMYRNA         LGT RAIN  79  70  73 SE6       29.96R
COOKEVILLE     SUNNY     73  68  83 S7        29.98S
GALLATIN       SUNNY     75  72  88 CALM      29.96F
CROSSVILLE     PTSUNNY   67  64  90 E3        30.04R
$$

TNZ061-075-076-078-094-096-097-192300-
SOUTH MIDDLE TENNESSEE

CITY           SKY/WX    TMP DP  RH WIND       PRES   REMARKS
FAYETTEVILLE   SUNNY     79  68  69 SE9       29.96R
TULLAHOMA      MOSUNNY   73  64  73 SE7       29.99R
WINCHESTER     MOSUNNY   75  68  78 E6        29.98S
MCMINNVILLE    SUNNY     75  72  88 NE3       29.99R
COLUMBIA       MOSUNNY   86 N/A N/A VRB5      29.91R
SHELBYVILLE    SUNNY     77  68  73 SE8       29.96R
$$

TNZ017-018-042-046-047-192300-
NORTHEAST TENNESSEE

CITY           SKY/WX    TMP DP  RH WIND       PRES   REMARKS
TRI CITIES     MOSUNNY   84  59  42 CALM      29.98S
ELIZABETHTON   SUNNY     82  59  44 CALM      29.98S
$$

TNZ012-013-036-069-073-074-192300-
CENTRAL EAST TENNESSEE

CITY           SKY/WX    TMP DP  RH WIND       PRES   REMARKS
KNOXVILLE      TSTM      70  63  78 W21       30.00R
OAK RIDGE      LGT RAIN  68  65  90 CALM      30.02R
DOWNTOWN KNOXV PTSUNNY   79  66  65 W12G20    29.98R
GATLINBURG     SUNNY     82  61  47 W7        29.97R
MORRISTOWN     SUNNY     82  63  51 W7        29.98R
JACKSBORO      MOSUNNY   73  70  88 CALM      30.03R
$$

TNZ083-085-099-192300-
SOUTHEAST TENNESSEE

CITY           SKY/WX    TMP DP  RH WIND       PRES   REMARKS
CHATTANOOGA    CLOUDY    72  69  90 S6        29.98F
DAYTON         CLEAR     68  68 100 CALM      29.99S FOG
$$

SKY/WX REPORTED AS FAIR MEANS FEW OR NO CLOUDS BELOW
12 THOUSAND FEET.





USA.gov is the U.S. government's official web portal to all federal, state and local government web resources and services.